Date String (YYYY-MM-DD hh:mm:ss) UTC,Instrument flags,Ambient pressure (hPa),Sample flow (lpm),Bypass flow (lpm),Sample temperature (°C),Ambient temperature (°C),ASC tube jacket temperature (°C),LED temperature (°C),Box temperature (°C),Sample RH (%),Span deviation,Mass concentration (μg/m³),Mass concentration (μg/m³),Mass concentration (μg/m³)
DateTimeUTC,F1_M11,P_M11,Q1_M11,Q2_M11,T1_M11,T2_M11,T3_M11,T4_M11,T5_M11,U1_M11,ZSPAN_M11,X2_M11,X0_M11,X1_M11
2021-11-28 01:00:00,,0831.6,5.01,0.00,25.9,25.1,00.0,34.9,27.7,10.2,0000.0,0003.54,0014.70,0001.83
2021-11-28 01:01:00,,0831.6,4.99,0.00,25.9,25.1,00.0,34.9,27.7,10.2,0000.0,0003.53,0014.15,0001.83
2021-11-28 01:02:00,,0831.6,5.01,0.00,25.9,25.1,00.0,34.9,27.7,10.2,0000.0,0003.49,0013.62,0001.81
2021-11-28 01:03:00,,0831.6,5.02,0.00,25.9,25.1,00.0,34.9,27.7,10.2,0000.0,0003.45,0013.25,0001.76
2021-11-28 01:04:00,,0831.7,4.99,0.00,25.9,25.1,00.0,34.9,27.7,10.2,0000.0,0003.42,0012.99,0001.70
2021-11-28 01:05:00,,0831.7,5.01,0.00,25.9,25.1,00.0,34.9,27.7,10.2,0000.0,0003.47,0012.93,0001.67
2021-11-28 01:06:00,,0831.7,5.00,0.00,25.9,25.1,00.0,34.9,27.8,10.2,0000.0,0003.48,0011.23,0001.65
2021-11-28 01:07:00,,0831.7,5.00,0.00,25.9,25.1,00.0,34.9,27.8,10.2,0000.0,0003.47,0010.05,0001.64
2021-11-28 01:08:00,,0831.7,4.99,0.00,25.9,25.2,00.0,34.9,27.8,10.2,0000.0,0003.46,0010.54,0001.62
2021-11-28 01:09:00,,0831.7,5.02,0.00,25.9,25.2,00.0,34.9,27.8,10.2,0000.0,0003.46,0010.15,0001.61
2021-11-28 01:10:00,,0831.7,4.99,0.00,26.0,25.2,00.0,34.9,27.8,10.2,0000.0,0003.44,0009.73,0001.62
2021-11-28 01:11:00,,0831.7,5.01,0.00,26.0,25.2,00.0,34.9,27.8,10.2,0000.0,0003.42,0009.81,0001.62
2021-11-28 01:12:00,,0831.7,5.00,0.00,26.0,25.2,00.0,34.9,27.8,10.2,0000.0,0003.46,0010.18,0001.65
2021-11-28 01:13:00,,0831.7,5.00,0.00,26.0,25.2,00.0,34.9,27.8,10.2,0000.0,0003.49,0010.35,0001.68
2021-11-28 01:14:00,,0831.7,5.01,0.00,26.0,25.2,00.0,34.9,27.7,10.2,0000.0,0003.55,0011.02,0001.72
2021-11-28 01:15:00,,0831.7,5.00,0.00,26.0,25.2,00.0,34.9,27.7,10.2,0000.0,0003.56,0011.41,0001.76
2021-11-28 01:16:00,,0831.8,5.01,0.00,26.0,25.2,00.0,34.9,27.8,10.2,0000.0,0003.57,0011.84,0001.80
2021-11-28 01:17:00,,0832.0,5.00,0.00,26.0,25.2,00.0,34.9,27.8,10.2,0000.0,0003.57,0012.23,0001.82
2021-11-28 01:18:00,,0832.0,4.99,0.00,26.0,25.2,00.0,34.9,27.8,10.2,0000.0,0003.55,0012.21,0001.83
2021-11-28 01:19:00,,0832.0,5.01,0.00,26.0,25.2,00.0,34.9,27.8,10.2,0000.0,0003.55,0011.85,0001.86
2021-11-28 01:20:00,,0832.1,5.00,0.00,26.0,25.1,00.0,34.9,27.7,10.2,0000.0,0003.54,0011.57,0001.88
2021-11-28 01:21:00,,0832.1,4.99,0.00,26.0,25.1,00.0,34.9,27.7,10.2,0000.0,0003.58,0011.65,0001.90
2021-11-28 01:22:00,,0832.1,5.01,0.00,26.0,25.1,00.0,34.9,27.7,10.2,0000.0,0003.64,0011.87,0001.92
2021-11-28 01:23:00,,0832.2,5.00,0.00,26.0,25.1,00.0,34.9,27.8,10.2,0000.0,0003.66,0013.06,0001.92
2021-11-28 01:24:00,,0832.3,5.01,0.00,26.0,25.1,00.0,34.9,27.8,10.2,0000.0,0003.68,0013.35,0001.94
2021-11-28 01:25:00,,0832.3,4.99,0.00,26.0,25.1,00.0,34.9,27.8,10.2,0000.0,0003.66,0013.37,0001.96
2021-11-28 01:26:00,,0832.3,5.00,0.00,26.0,25.1,00.0,34.9,27.8,10.2,0000.0,0003.65,0012.95,0001.97
2021-11-28 01:27:00,,0832.4,4.99,0.00,26.0,25.1,00.0,34.9,27.8,10.2,0000.0,0003.65,0013.24,0001.97
2021-11-28 01:28:00,,0832.4,5.01,0.00,26.0,25.1,00.0,34.9,27.7,10.2,0000.0,0003.63,0013.85,0002.00
2021-11-28 01:29:00,,0832.3,5.01,0.00,26.0,25.1,00.0,34.9,27.7,10.3,0000.0,0003.63,0014.16,0002.03
2021-11-28 01:30:00,,0832.3,4.99,0.00,26.0,25.1,00.0,34.9,27.7,10.3,0000.0,0003.61,0014.63,0002.05
2021-11-28 01:31:00,,0832.3,4.99,0.00,26.0,25.1,00.0,34.9,27.7,10.3,0000.0,0003.62,0014.75,0002.06
2021-11-28 01:32:00,,0832.3,5.01,0.00,26.0,25.1,00.0,34.9,27.7,10.2,0000.0,0003.61,0015.00,0002.08
2021-11-28 01:33:00,,0832.3,5.00,0.00,26.0,25.1,00.0,34.9,27.7,10.2,0000.0,0003.56,0015.03,0002.10
2021-11-28 01:34:00,,0832.3,4.98,0.00,26.0,25.1,00.0,34.9,27.7,10.2,0000.0,0003.50,0014.07,0002.10
2021-11-28 01:35:00,,0832.3,5.01,0.00,26.0,25.1,00.0,34.9,27.7,10.2,0000.0,0003.48,0013.66,0002.11
2021-11-28 01:36:00,,0832.2,4.99,0.00,26.0,25.1,00.0,34.9,27.7,10.2,0000.0,0003.45,0013.17,0002.11
2021-11-28 01:37:00,,0832.2,5.01,0.00,26.0,25.1,00.0,34.9,27.7,10.2,0000.0,0003.47,0013.54,0002.13
2021-11-28 01:38:00,,0832.2,5.00,0.00,25.9,25.1,00.0,34.9,27.7,10.2,0000.0,0003.45,0013.10,0002.15
2021-11-28 01:39:00,,0832.2,4.98,0.00,25.9,25.1,00.0,34.9,27.7,10.3,0000.0,0003.44,0011.39,0002.14
2021-11-28 01:40:00,,0832.2,5.02,0.00,25.9,25.1,00.0,34.9,27.7,10.3,0000.0,0003.47,0011.73,0002.14
2021-11-28 01:41:00,,0832.2,5.00,0.00,25.9,25.1,00.0,34.9,27.7,10.3,0000.0,0003.51,0012.30,0002.14
2021-11-28 01:42:00,,0832.2,5.00,0.00,25.9,25.1,00.0,34.9,27.7,10.3,0000.0,0003.53,0012.24,0002.15
2021-11-28 01:43:00,,0832.2,4.99,0.00,25.9,25.0,00.0,34.9,27.7,10.3,0000.0,0003.53,0012.09,0002.14
2021-11-28 01:44:00,,0832.3,5.00,0.00,25.9,25.0,00.0,34.9,27.7,10.3,0000.0,0003.52,0012.63,0002.11
2021-11-28 01:45:00,,0832.2,5.01,0.00,25.9,25.0,00.0,34.9,27.7,10.3,0000.0,0003.57,0012.59,0002.12
2021-11-28 01:46:00,,0832.3,5.01,0.00,25.9,25.0,00.0,34.9,27.7,10.3,0000.0,0003.60,0012.55,0002.11
2021-11-28 01:47:00,,0832.4,4.98,0.00,25.9,25.0,00.0,34.9,27.7,10.3,0000.0,0003.65,0012.70,0002.11
2021-11-28 01:48:00,,0832.3,5.01,0.00,25.9,25.1,00.0,34.9,27.7,10.3,0000.0,0003.63,0012.56,0002.10
2021-11-28 01:49:00,,0832.3,4.99,0.00,25.9,25.0,00.0,34.9,27.6,10.3,0000.0,0003.58,0013.61,0002.08
2021-11-28 01:50:00,,0832.4,4.99,0.00,25.9,25.0,00.0,34.9,27.6,10.3,0000.0,0003.59,0014.19,0002.08
2021-11-28 01:51:00,,0832.5,5.01,0.00,25.9,25.0,00.0,34.9,27.6,10.3,0000.0,0003.55,0013.36,0002.08
2021-11-28 01:52:00,,0832.5,4.98,0.00,25.9,25.0,00.0,34.9,27.6,10.3,0000.0,0003.54,0013.08,0002.09
2021-11-28 01:53:00,,0832.6,5.01,0.00,25.9,25.0,00.0,34.9,27.6,10.3,0000.0,0003.54,0013.99,0002.08
2021-11-28 01:54:00,,0832.6,5.01,0.00,25.9,24.9,00.0,34.9,27.5,10.3,0000.0,0003.58,0014.13,0002.09
2021-11-28 01:55:00,,0832.6,4.99,0.00,25.8,24.9,00.0,34.9,27.5,10.3,0000.0,0003.59,0013.62,0002.09
2021-11-28 01:56:00,,0832.6,5.01,0.00,25.8,24.9,00.0,34.9,27.6,10.3,0000.0,0003.55,0014.23,0002.08
2021-11-28 01:57:00,,0832.6,4.99,0.00,25.8,24.9,00.0,34.9,27.5,10.3,0000.0,0003.52,0014.86,0002.10
2021-11-28 01:58:00,,0832.6,4.99,0.00,25.8,24.9,00.0,34.9,27.6,10.2,0000.0,0003.54,0014.71,0002.12
2021-11-28 01:59:00,,0832.7,5.00,0.00,25.8,24.9,00.0,34.9,27.6,10.2,0000.0,0003.60,0014.51,0002.14
